Find Starlink 11726

NORAD ID: 64067 Int'l Des: 2025-107 Owner: SPXS Country: US Constellation: starlink operational
又名: STARLINK-11726 [DTC] celestrak
LEOCIRCULAR

当前视图

正在加载3D地球...

About Starlink 11726

Starlink 11726 (NORAD 64067) is a starlink constellation satellite (v2 mini d2c) launched May 21, 2025 by SPXS of US. It operates in LEO, CIRCULAR orbit with a mass of 960.00 kg.

即将过境

Passes for default location (London). Set your location on the main map for personalized predictions.

高度历史

Loading altitude history...

两行轨道根数

1 64067U 25107D 26263.34383821 .00157973 00000-0 12046-2 0 9996
2 64067 43.0003 4.7873 0002721 268.5904 91.4652 15.70970754 77916
Epoch: Sep 20, 2026 • Age: 11 hours

当前状态

高度 360.6 km
远地点 / 近地点 N/A
速度 7.70 km/s
星下点 43.16°N, 163.74°E
发射日期 May 21, 2025
运行时间 1.3 years
类型 internet

技术详情

分类 Payload
质量 960.00 kg
干质量 910.00 kg
长度 0.30 m
跨度 29.00 m
形状 ? Box + pan
制造商 SPXS
平台类型 Starlink V2MD
阶段状态 In Orbit
所有者/国家 SPXS/US

Most Searched